Location: Unspecified
(48.2082°N, 0.0000°E)
Time: 18:45:57
(UTC+00:00)

Transit 4A - Pass Details

Date: 20 June 2019
Orbit: 862 x 982 km, 66.8° (Epoch: 18 July)

Event Time Altitude Azimuth Distance (km) Brightness Sun altitude
Rises 17:40:32 0° 322° (NW) 3,694 11.8 20.6°
Reaches altitude 10° 17:43:11 10° 318° (NW) 2,736 11.4 20.2°
Maximum altitude 17:49:22 54° 244° (WSW) 1,167 9.3 19.2°
Drops below altitude 10° 17:55:24 10° 169° (SSE) 2,662 10.1 18.2°
Sets 17:57:57 0° 164° (SSE) 3,585 10.7 17.8°
